Vorticity
-22 -2 27 2 -8 -1 9 14 5 18 20 24 7 4 4 6 11 10 9 9 10 6 5 13 11 12 8 14 15 16 15 10 7 5 6 6 10 4 7 0 3 4 4 5
-4 9 -0 11 7 10 4 4 5 11 28 2 23 -6 6 9 6 7 6 6 10 9 9 10 14 13 9 11 11 12 13 20 10 7 8 4 7 9 9 7 10 11 6 4
-1 16 8 6 2 3 5 -6 11 -1 1 2 -13 2 8 5 10 10 9 6 5 5 7 8 8 1 8 10 11 9 14 18 7 2 13 7 5 6 8 8 6 8 13 11
9 -1 15 3 10 -4 19 7 19 6 21 17 15 3 11 9 11 8 6 4 5 6 7 6 9 8 9 8 8 9 8 12 17 21 8 11 9 4 6 5 10 8 8 8
2 15 6 1 5 -13 10 -1 32 2 -4 -6 6 6 -2 -2 7 11 9 9 9 4 4 5 5 6 7 6 6 13 17 16 8 10 8 12 7 10 6 10 9 6 3 4
8 10 7 -3 11 13 11 -7 -20 -9 16 16 8 9 5 8 3 16 10 11 12 16 13 8 6 2 1 4 8 9 14 11 13 14 10 9 7 9 6 5 7 6 5 7
-3 16 1 16 2 23 -5 12 31 16 -6 -0 4 14 -8 -4 10 9 4 -1 -4 1 12 11 14 12 12 9 7 5 10 14 17 20 12 12 14 11 10 9 14 10 8 6
-2 7 7 2 16 3 6 12 16 9 16 3 4 11 8 -5 8 9 -3 7 13 10 -3 11 12 10 11 10 8 8 9 13 13 16 13 11 11 13 12 10 9 7 9 10
10 5 11 2 2 2 11 -6 4 23 8 -7 17 8 27 11 11 9 -1 7 8 4 8 6 9 10 11 13 13 13 13 9 7 11 16 17 16 13 12 12 13 14 14 14
18 4 21 4 2 12 5 -9 9 -19 9 18 6 20 8 8 11 3 6 7 4 2 5 5 3 3 11 10 9 6 6 10 22 17 9 7 7 6 9 11 12 12 10 8
20 -4 22 11 7 -1 12 5 -6 17 -1 3 17 5 -24 10 4 5 6 8 6 4 9 12 9 10 14 3 4 1 -1 -1 2 3 -1 3 8 16 15 14 12 6 16 13
-1 9 6 16 6 -1 7 9 5 4 6 23 4 7 9 8 13 11 10 10 19 13 9 9 8 8 5 13 8 7 5 3 -0 4 5 8 6 4 5 -1 -5 -1 7 6
-1 -2 3 11 11 11 -4 8 11 -8 -5 11 12 6 -6 14 10 9 7 5 4 4 5 4 4 3 5 6 8 11 5 6 4 3 3 3 -2 1 6 6 4 -2 1 10
1 -5 10 4 8 6 11 14 8 9 7 11 3 23 15 8 3 2 4 5 6 5 4 3 3 4 5 8 9 2 -1 1 2 3 -0 -2 2 3 4 4 5 9 8 3
5 -8 6 -8 16 18 11 13 9 -1 5 8 28 15 -3 1 2 3 2 2 8 5 2 3 2 2 4 7 6 3 4 4 3 0 2 4 11 -4 0 3 6 10 4 9
3 2 4 -5 12 -2 5 8 7 8 8 0 -3 3 -20 6 1 2 2 2 4 9 6 5 6 5 5 6 9 6 4 4 4 3 2 1 3 8 6 4 8 8 9 31
6 -8 -2 16 -5 15 2 4 5 6 7 5 12 9 5 5 1 1 2 4 7 9 6 8 9 11 11 10 9 6 8 9 9 9 7 10 5 4 9 12 15 12 6 -1
10 -9 1 6 10 5 8 19 13 8 7 7 9 12 7 6 3 4 5 8 7 6 8 13 10 8 14 13 12 9 8 9 9 11 15 14 12 13 7 22 25 24 10 15
18 6 -4 18 9 6 8 2 -15 -2 8 11 2 10 9 8 6 7 7 6 6 7 11 10 9 5 12 11 8 10 7 10 7 8 10 11 19 19 20 19 12 9 11 22
2 13 3 8 6 2 8 23 11 3 3 3 4 7 9 9 18 8 1 4 5 6 6 11 8 10 11 12 12 9 9 7 5 7 17 10 1 11 14 14 20 12 14 4
-0 -7 8 -5 6 3 17 2 -5 13 4 9 5 13 9 5 1 4 4 3 2 6 9 9 10 11 12 12 10 9 5 5 7 18 11 6 8 12 10 5 14 12 11 8
4 9 2 11 1 -1 14 -3 -3 2 5 14 6 13 10 11 6 5 5 4 3 7 7 7 11 10 10 11 8 6 8 10 16 5 6 8 11 12 12 10 15 14 22 22
27 15 2 25 -0 15 2 3 18 13 13 12 9 7 6 4 5 3 4 4 4 5 6 7 8 11 10 9 9 7 10 11 7 10 9 8 13 9 9 21 18 18 21 5
20 6 3 4 9 6 8 1 1 8 12 12 11 9 7 7 7 5 5 4 5 5 7 7 7 14 11 9 7 9 9 10 14 11 12 8 7 11 21 22 14 8 8 14
27 15 -1 8 11 1 -1 -4 -11 8 5 7 6 3 5 5 5 6 6 5 5 4 8 6 10 15 10 6 9 8 11 12 10 8 8 12 11 16 16 15 15 16 16 14
-3 30 6 5 6 -14 3 7 4 9 9 4 7 5 5 4 5 4 6 7 5 6 8 6 17 13 7 9 9 11 12 9 9 12 19 17 19 19 14 16 18 23 11 9
Height
5925 5928 5925 5934 5931 5931 5932 5931 5934 5927 5923 5922 5923 5922 5921 5920 5920 5920 5920 5918 5917 5917 5916 5915 5914 5914 5914 5914 5913 5913 5913 5913 5915 5915 5916 5915 5917 5919 5919 5920 5920 5920 5921 5921
5932 5930 5932 5932 5931 5933 5935 5932 5935 5930 5926 5924 5926 5925 5924 5923 5922 5922 5921 5920 5920 5919 5918 5916 5916 5915 5915 5914 5914 5913 5912 5912 5913 5915 5916 5917 5917 5917 5918 5919 5919 5920 5920 5921
5932 5933 5931 5931 5933 5934 5939 5937 5933 5933 5931 5930 5929 5930 5927 5924 5924 5923 5923 5922 5921 5921 5920 5919 5919 5918 5917 5916 5915 5914 5913 5912 5913 5914 5915 5916 5916 5917 5917 5918 5918 5918 5919 5919
5930 5932 5931 5932 5936 5936 5929 5935 5933 5933 5936 5938 5931 5935 5930 5927 5926 5925 5925 5924 5923 5923 5922 5921 5921 5920 5919 5918 5917 5915 5914 5913 5911 5912 5914 5915 5917 5917 5918 5919 5919 5918 5919 5920
5931 5929 5930 5931 5935 5934 5933 5936 5935 5934 5938 5938 5940 5940 5935 5932 5929 5928 5927 5926 5925 5925 5924 5923 5923 5922 5920 5919 5918 5917 5915 5914 5913 5912 5913 5913 5913 5914 5916 5918 5918 5918 5918 5918
5929 5928 5929 5934 5931 5931 5933 5933 5934 5936 5930 5943 5942 5940 5937 5936 5934 5932 5931 5929 5929 5927 5926 5926 5925 5924 5923 5922 5920 5919 5917 5915 5913 5911 5911 5912 5912 5912 5913 5914 5915 5916 5916 5916
5921 5925 5926 5928 5930 5931 5933 5930 5932 5937 5945 5944 5944 5937 5940 5939 5937 5935 5934 5932 5931 5931 5930 5928 5926 5925 5924 5922 5921 5920 5919 5917 5914 5913 5911 5911 5911 5912 5913 5913 5914 5914 5914 5914
5921 5926 5926 5927 5929 5935 5936 5927 5937 5942 5942 5944 5943 5942 5942 5939 5937 5937 5936 5934 5934 5933 5933 5930 5928 5927 5925 5923 5922 5921 5920 5919 5917 5914 5913 5912 5911 5911 5911 5911 5912 5911 5912 5912
5924 5927 5927 5930 5930 5930 5934 5937 5940 5941 5945 5944 5945 5943 5940 5939 5938 5938 5938 5936 5935 5935 5934 5932 5930 5928 5926 5925 5923 5922 5920 5919 5918 5916 5915 5914 5913 5913 5912 5911 5911 5910 5909 5908
5925 5928 5929 5929 5929 5930 5932 5934 5943 5939 5946 5947 5948 5946 5944 5943 5942 5941 5940 5940 5937 5935 5934 5932 5931 5931 5929 5927 5926 5924 5921 5919 5918 5917 5916 5916 5915 5913 5913 5912 5911 5910 5908 5906
5919 5927 5927 5926 5928 5933 5934 5937 5937 5944 5946 5947 5948 5946 5943 5942 5944 5945 5944 5943 5941 5937 5937 5935 5933 5932 5930 5929 5927 5925 5923 5921 5919 5918 5917 5916 5914 5913 5912 5910 5909 5908 5905 5904
5911 5924 5925 5926 5928 5928 5935 5938 5941 5942 5940 5944 5946 5945 5941 5941 5940 5941 5942 5940 5939 5938 5937 5936 5934 5932 5931 5929 5927 5925 5923 5921 5919 5917 5915 5914 5912 5911 5910 5909 5907 5905 5903 5901
5910 5917 5924 5929 5930 5928 5930 5933 5941 5941 5938 5945 5948 5944 5942 5939 5939 5939 5939 5938 5938 5937 5936 5934 5933 5931 5929 5928 5926 5924 5922 5920 5917 5916 5914 5911 5909 5907 5906 5904 5903 5901 5898 5896
5906 5916 5926 5929 5929 5931 5930 5933 5935 5942 5945 5943 5946 5941 5940 5939 5938 5937 5937 5937 5936 5935 5934 5933 5930 5928 5926 5924 5923 5921 5919 5916 5914 5912 5910 5908 5905 5902 5900 5897 5895 5892 5891 5889
5902 5911 5922 5918 5927 5931 5931 5932 5934 5937 5941 5947 5943 5945 5941 5938 5937 5936 5936 5935 5934 5933 5931 5930 5928 5926 5923 5920 5918 5916 5914 5912 5909 5906 5903 5901 5898 5897 5894 5890 5888 5884 5881 5880
5899 5908 5916 5921 5921 5925 5929 5932 5932 5934 5937 5939 5941 5941 5935 5935 5935 5934 5933 5933 5932 5930 5929 5927 5925 5922 5920 5917 5914 5911 5909 5906 5903 5900 5897 5895 5892 5891 5887 5883 5878 5874 5867 5853
5895 5904 5911 5916 5920 5921 5924 5929 5930 5933 5933 5937 5939 5938 5933 5933 5932 5931 5930 5930 5929 5928 5926 5924 5922 5919 5917 5914 5911 5907 5904 5901 5897 5894 5890 5887 5885 5881 5878 5874 5868 5866 5859 5855
5892 5899 5907 5912 5916 5917 5922 5925 5926 5929 5929 5930 5931 5930 5928 5929 5928 5927 5927 5927 5926 5924 5923 5921 5918 5916 5913 5909 5905 5901 5898 5894 5890 5887 5883 5879 5875 5871 5866 5862 5857 5854 5853 5849
5891 5897 5901 5906 5911 5916 5915 5916 5919 5922 5924 5923 5925 5924 5924 5924 5924 5924 5923 5922 5921 5921 5919 5916 5913 5910 5906 5902 5899 5895 5892 5888 5884 5880 5876 5871 5866 5861 5857 5852 5848 5845 5842 5839
5887 5892 5898 5901 5908 5910 5912 5911 5915 5918 5921 5919 5919 5919 5919 5920 5920 5918 5918 5917 5916 5915 5913 5910 5907 5904 5900 5896 5893 5889 5886 5881 5877 5873 5868 5863 5858 5853 5848 5844 5840 5836 5832 5829
5877 5883 5889 5897 5901 5907 5911 5908 5908 5912 5918 5913 5915 5915 5915 5915 5916 5915 5913 5912 5911 5910 5908 5905 5901 5898 5894 5890 5886 5883 5879 5875 5870 5865 5860 5855 5850 5845 5840 5836 5832 5826 5822 5819
5871 5877 5884 5892 5896 5903 5898 5900 5906 5907 5907 5910 5910 5910 5910 5911 5911 5910 5909 5907 5905 5903 5901 5899 5895 5891 5887 5882 5879 5876 5872 5867 5862 5857 5853 5847 5842 5837 5833 5828 5823 5816 5813 5810
5865 5872 5881 5888 5892 5895 5895 5898 5899 5901 5903 5905 5906 5906 5906 5907 5906 5905 5903 5901 5899 5897 5894 5891 5888 5884 5880 5876 5873 5869 5865 5860 5855 5850 5845 5840 5835 5830 5825 5819 5815 5810 5806 5803
5861 5867 5876 5885 5885 5886 5889 5893 5895 5897 5899 5900 5902 5902 5901 5901 5901 5899 5898 5896 5893 5891 5888 5885 5881 5877 5873 5870 5866 5861 5857 5852 5847 5842 5837 5831 5827 5821 5816 5812 5807 5803 5800 5797
5857 5861 5869 5871 5875 5882 5883 5887 5890 5893 5894 5896 5897 5897 5896 5896 5895 5894 5892 5890 5888 5885 5882 5878 5875 5871 5867 5863 5859 5855 5850 5844 5839 5834 5829 5824 5819 5814 5810 5807 5804 5799 5795 5791
5849 5854 5861 5867 5871 5877 5881 5884 5885 5887 5888 5890 5892 5892 5891 5890 5889 5887 5885 5884 5881 5878 5875 5871 5867 5864 5860 5856 5852 5847 5842 5836 5832 5827 5822 5817 5812 5808 5804 5800 5796 5793 5790 5786